Location: Grand Rapids
(42.9630°N, 85.6680°W)
Time: 08:05:46
(UTC-04:00)

Tiros 1 - Pass Details

Date: 26 April 2025
Orbit: 620 x 652 km, 48.4° (Epoch: 13 May)

Event Time Altitude Azimuth Distance (km) Brightness Sun altitude
Exits shadow 05:31:15 15° 267° (W) 1,741 8.8 -12.7°
Maximum altitude 05:35:05 57° 343° (NNW) 766 7.6 -12.1°
Drops below altitude 10° 05:39:46 10° 63° (ENE) 2,058 11.3 -11.3°
Sets 05:42:09 0° 67° (ENE) 2,969 12.6 -11.0°
